LA6JKA Weather Reports


time (UTC)temp
C
wind
direction
speed
KPH
gust
KPH
rain 1hr
cm
rain 24hr
cm
rain mn
cm
humidity
%
barometer
mb
20260507233025 -17 0.0 0.0 0.00 0.00 0.00 1020.2
20260507231515 -17 0.0 0.0 0.00 0.00 0.00 1020.1
20260507230023 -17 0.0 0.0 0.00 0.00 0.00 1020.0
20260507224507 -17 0.0 0.0 0.00 0.00 0.00 1019.9
20260507223002 -17 0.0 0.0 0.00 0.00 0.00 1020.0
20260507221558 -17 0.0 0.0 0.00 0.00 0.00 1020.0
20260507220054 3 30 1.6 3.2 0.00 0.00 0.00 65 1019.8
20260507214556 3 288 0.0 0.0 0.00 0.00 0.00 63 1019.9
20260507213057 3 288 0.0 3.2 0.00 0.00 0.00 62 1019.8
20260507211553 4 287 1.6 3.2 0.00 0.00 0.00 61 1019.5
20260507210049 5 230 0.0 0.0 0.00 0.00 0.00 60 1019.4
20260507204548 5 230 0.0 3.2 0.00 0.00 0.00 57 1019.3
20260507203047 6 230 0.0 1.6 0.00 0.00 0.00 53 1019.2
20260507201549 6 230 0.0 0.0 0.00 0.00 0.00 52 1019.1
20260507200046 7 230 0.0 1.6 0.00 0.00 0.00 49 1018.9
20260507194541 8 230 0.0 3.2 0.00 0.00 0.00 46 1018.8
20260507193042 9 230 0.0 3.2 0.00 0.00 0.00 43 1018.5
20260507191542 10 230 1.6 3.2 0.00 0.00 0.00 41 1018.3
20260507190038 11 230 1.6 4.8 0.00 0.00 0.00 37 1018.1
20260507184536 12 218 4.8 9.7 0.00 0.00 0.00 33 1018.0
20260507183045 13 213 0.0 3.2 0.00 0.00 0.00 28 1017.8
20260507181533 15 276 0.0 4.8 0.00 0.00 0.00 25 1017.7
20260507180044 16 276 1.6 4.8 0.00 0.00 0.00 23 1017.6
20260507174533 15 253 0.0 11.3 0.00 0.00 0.00 24 1017.4
20260507173030 16 61 1.6 8.0 0.00 0.00 0.00 22 1017.2
20260507171528 16 259 0.0 3.2 0.00 0.00 0.00 21 1017.3
20260507170042 16 171 3.2 8.0 0.00 0.00 0.00 24 1017.3
20260507164525 16 262 1.6 11.3 0.00 0.00 0.00 22 1017.1
20260507163024 15 263 4.8 17.7 0.00 0.00 0.00 22 1017.2
20260507161521 16 5 1.6 11.3 0.00 0.00 0.00 22 1017.2
20260507160021 15 306 3.2 17.7 0.00 0.00 0.00 21 1017.3
20260507154522 15 355 9.7 20.9 0.00 0.00 0.00 22 1017.1
20260507153018 15 10 4.8 12.9 0.00 0.00 0.00 20 1017.1
20260507151519 15 360 1.6 16.1 0.00 0.00 0.00 21 1017.1
20260507150017 15 333 9.7 16.1 0.00 0.00 0.00 21 1017.1
20260507144515 15 36 6.4 16.1 0.00 0.00 0.00 21 1017.1
20260507143013 15 10 8.0 14.5 0.00 0.00 0.00 26 1017.0
20260507141513 15 303 1.6 12.9 0.00 0.00 0.00 25 1017.0
20260507140012 15 239 6.4 11.3 0.00 0.00 0.00 27 1016.9
20260507134511 15 334 6.4 14.5 0.00 0.00 0.00 26 1016.9
20260507133010 15 234 8.0 16.1 0.00 0.00 0.00 26 1017.0
20260507131508 14 313 4.8 12.9 0.00 0.00 0.00 31 1017.0
20260507130006 13 338 6.4 17.7 0.00 0.00 0.00 27 1017.1
20260507124505 13 349 4.8 12.9 0.00 0.00 0.00 26 1017.1
20260507123003 13 205 0.0 12.9 0.00 0.00 0.00 27 1017.1
20260507121601 12 292 9.7 17.7 0.00 0.00 0.00 29 1017.0
20260507120059 13 303 8.0 17.7 0.00 0.00 0.00 26 1017.0
20260507114600 12 148 3.2 11.3 0.00 0.00 0.00 33 1017.1
20260507113056 12 246 3.2 19.3 0.00 0.00 0.00 30 1016.9
20260507111556 12 213 3.2 16.1 0.00 0.00 0.00 33 1017.0
20260507110100 12 246 4.8 12.9 0.00 0.00 0.00 30 1016.9
20260507104600 12 229 3.2 9.7 0.00 0.00 0.00 36 1016.8
20260507103115 12 329 3.2 9.7 0.00 0.00 0.00 33 1016.8
20260507101546 11 26 1.6 6.4 0.00 0.00 0.00 38 1016.7
20260507100058 11 299 3.2 14.5 0.00 0.00 0.00 38 1016.6
20260507094542 10 22 0.0 14.5 0.00 0.00 0.00 38 1016.5
20260507093040 10 303 6.4 11.3 0.00 0.00 0.00 38 1016.7
20260507091542 10 57 1.6 12.9 0.00 0.00 0.00 40 1016.7
20260507090036 9 360 0.0 14.5 0.00 0.00 0.00 38 1016.6
20260507084542 9 313 4.8 12.9 0.00 0.00 0.00 42 1016.7
20260507083032 9 5 6.4 12.9 0.00 0.00 0.00 46 1016.6
20260507081528 8 30 4.8 9.7 0.00 0.00 0.00 45 1016.6
20260507080025 8 22 4.8 12.9 0.00 0.00 0.00 47 1016.5
20260507074521 7 9 3.2 12.9 0.00 0.00 0.00 47 1016.4
20260507073017 7 331 6.4 14.5 0.00 0.00 0.00 49 1016.3
20260507071520 7 340 4.8 14.5 0.00 0.00 0.00 50 1016.1
20260507070013 6 325 6.4 14.5 0.00 0.00 0.00 51 1016.1
20260507064509 6 360 3.2 9.7 0.00 0.00 0.00 53 1016.1
20260507063005 5 39 4.8 12.9 0.00 0.00 0.00 54 1016.1
20260507061502 5 5 3.2 8.0 0.00 0.00 0.00 54 1015.9
20260507060103 5 360 6.4 14.5 0.00 0.00 0.00 54 1015.7
20260507054613 4 9 3.2 9.7 0.00 0.00 0.00 56 1015.7
20260507053103 3 344 4.8 8.0 0.00 0.00 0.00 57 1015.6
20260507051555 3 326 4.8 9.7 0.00 0.00 0.00 58 1015.5
20260507050053 2 333 4.8 9.7 0.00 0.00 0.00 59 1015.4
20260507044554 2 321 3.2 6.4 0.00 0.00 0.00 61 1015.3
20260507043046 1 306 3.2 9.7 0.00 0.00 0.00 63 1015.2
20260507041558 0 316 1.6 6.4 0.00 0.00 0.00 66 1015.1
20260507040043 0 306 3.2 6.4 0.00 0.00 0.00 69 1015.0
20260507034542 0 295 3.2 6.4 0.00 0.00 0.00 71 1014.9
20260507033041 -1 319 1.6 6.4 0.00 0.00 0.00 72 1014.7
20260507031541 -1 309 1.6 4.8 0.00 0.00 0.00 72 1014.7
20260507030036 0 311 0.0 3.2 0.00 0.00 0.00 72 1014.6
20260507024537 0 311 0.0 1.6 0.00 0.00 0.00 70 1014.6
20260507023030 0 311 0.0 3.2 0.00 0.00 0.00 67 1014.5
20260507021534 0 317 1.6 6.4 0.00 0.00 0.00 67 1014.4
20260507020027 0 317 1.6 4.8 0.00 0.00 0.00 66 1014.3
20260507014529 0 319 3.2 8.0 0.00 0.00 0.00 67 1014.2
20260507013023 0 317 1.6 4.8 0.00 0.00 0.00 67 1014.1
20260507011523 0 309 0.0 3.2 0.00 0.00 0.00 66 1013.9
20260507010029 1 314 0.0 4.8 0.00 0.00 0.00 64 1013.9
20260507004518 1 316 0.0 4.8 0.00 0.00 0.00 60 1013.9
20260507003016 2 305 1.6 4.8 0.00 0.00 0.00 61 1013.8
20260507001516 1 324 3.2 8.0 0.00 0.00 0.00 60 1013.7
20260507000019 1 328 3.2 6.4 0.00 0.00 0.00 65 1013.8
20260506234510 1 317 0.0 3.2 0.00 0.00 0.00 64 1013.6